INTELSAT 36 (IS-36) (41747 NORAD) Tracking and Keplerian Element Data

This shows tracking and keplerian element data for the satellite.

Feedback or suggestion? Click here.




ElementValue
Catalog41747
NameINTELSAT 36 (IS-36)
Epoch Orbit3095
Epoch Day34.79384843
Epoch Year2025
RAAN40.7922
Inclination0.0085
Eccentricity0.0001278
Argument of Perigee273.825
Mean Anonmoly173.8606
Mean Motion1.0027036
Decay Rate-2E-07
L11 41747U 16053A 25034.79384843 -.00000020 00000+0 00000+0 0 9999
L22 41747 0.0085 40.7922 0001278 273.8250 173.8606 1.00270360 30954



Live tracking and technical data element details for INTELSAT 36 (IS-36) (NORAD 41747). INTELSAT 36 (IS-36) can be tracked NOW for your location showing map with azimuth and elevation plus other details from your city location.







IsCatalogInMostPopularTable: catalog: 41747, numindb: 642
Update: records affected: 1



GetName: 41747 INTELSAT 36 (IS-36)

Hit Count: updated at: Wed, 30 Apr 2025 17:01:55 GMT